User: anonymous   Login
Location: Caltech
(34.1382°N, 118.1253°W)
Time: 06:27:41
(UTC-08:00)
Language:

SL-16 R/B - Orbit

View from above orbital plane
View from above orbital plane
View from above satellite
View from above satellite

Ground track
Ground track

The orbit data is extracted from the following two-line orbital elements,

1 28353U 04021B   15025.53083286 -.00000289  00000-0 -12671-3 0  9357
2 28353 071.0011 110.5711 0002603 075.0873 014.0617 14.14108518548650
Epoch (UTC): 25 January 2015 12:44:23
Eccentricity: 0.0002603
inclination: 71.0011°
perigee height: 843 km
apogee height: 847 km
right ascension of ascending node: 110.5711°
argument of perigee: 75.0873°
revolutions per day: 14.14108518
mean anomaly at epoch: 14.0617°
orbit number at epoch: 54865

The dashed part of the orbit path shows where the satellite is in the earth's shadow,  

DLR